This is the latest recevied weather packets stored in our database for station/object DL0BB-10. If no packets are shown the sender has not sent any weather packets the latest 10 day(s).
| Time | Temp. | Humidity | Pressure | Rain* | Wind** | Luminosity | Snow |
|---|---|---|---|---|---|---|---|
| 1788540296 | 28.33° C | 39% | 1014.5 hPa | - | - | - | - |
| 1788539396 | 28.33° C | 39% | 1014.5 hPa | - | - | - | - |
| 1788538496 | 27.78° C | 40% | 1014.5 hPa | - | - | - | - |
| 1788537596 | 28.33° C | 39% | 1014.5 hPa | - | - | - | - |
| 1788536695 | 28.89° C | 38% | 1014.5 hPa | - | - | - | - |
| 1788535795 | 27.78° C | 39% | 1014.6 hPa | - | - | - | - |
| 1788534894 | 27.78° C | 40% | 1014.6 hPa | - | - | - | - |
| 1788533994 | 28.33° C | 39% | 1014.6 hPa | - | - | - | - |
| 1788533099 | 28.33° C | 38% | 1014.6 hPa | - | - | - | - |
| 1788532199 | 27.78° C | 40% | 1014.7 hPa | - | - | - | - |
| 1788531299 | 27.78° C | 40% | 1014.7 hPa | - | - | - | - |
| 1788530398 | 27.78° C | 39% | 1014.9 hPa | - | - | - | - |
| 1788529498 | 28.33° C | 38% | 1015 hPa | - | - | - | - |
| 1788528598 | 27.22° C | 40% | 1015.4 hPa | - | - | - | - |
| 1788527697 | 27.22° C | 39% | 1015.6 hPa | - | - | - | - |
| 1788526797 | 27.78° C | 38% | 1015.7 hPa | - | - | - | - |
| 1788525897 | 27.22° C | 39% | 1016 hPa | - | - | - | - |
| 1788524999 | 26.67° C | 39% | 1016.1 hPa | - | - | - | - |
| 1788524097 | 27.22° C | 39% | 1016.4 hPa | - | - | - | - |
| 1788523197 | 27.22° C | 37% | 1016.6 hPa | - | - | - | - |
| 1788522297 | 26.67° C | 39% | 1016.8 hPa | - | - | - | - |
| 1788521397 | 26.67° C | 39% | 1017 hPa | - | - | - | - |
| 1788520497 | 26.67° C | 38% | 1017.1 hPa | - | - | - | - |
| 1788519596 | 27.22° C | 37% | 1017.5 hPa | - | - | - | - |
| 1788518696 | 26.11° C | 39% | 1017.9 hPa | - | - | - | - |
* Rain since midnight (hover to see other rain measurements)
** Current wind speed in m/s (hover to see current wind gust speed)